Temp
13 13 13 12 12 12 11 11 11 11 11 11 12 12 12 13 13 13 13 13 13 13 13 13 13 14 14 14 14 14 14 14 13 13 13 13 14 14 14 15 15 15 15 15 15 15 15 15 15 14 14 14 14 14 14 14 14 14 14 13 13 13 13 13 13 13 13 13 12
13 13 13 13 12 12 11 11 11 10 10 11 12 13 13 12 12 12 13 13 13 13 13 13 13 13 14 14 14 14 13 13 13 13 13 14 14 14 15 15 15 15 15 15 15 15 15 15 14 14 14 14 14 14 14 14 14 14 13 13 13 13 13 13 13 13 12 12 12
14 14 14 13 13 12 11 11 11 11 11 11 12 13 13 12 12 12 12 12 12 12 12 12 13 13 13 13 13 13 13 13 13 14 14 14 14 15 15 15 15 15 15 15 15 15 14 14 14 14 14 14 14 14 13 13 14 13 13 13 13 13 13 13 12 12 12 12 12
15 15 14 14 13 13 12 12 11 11 11 11 11 12 12 12 12 12 12 12 12 12 12 12 12 12 12 12 13 13 13 13 14 14 14 14 14 15 15 15 15 15 15 14 14 14 14 14 14 14 14 14 14 13 13 13 13 13 13 13 13 13 12 12 12 12 12 12 11
15 15 15 15 14 14 13 13 12 12 12 12 11 11 12 12 12 11 11 11 12 11 11 11 11 12 12 13 13 13 13 14 14 14 14 14 14 14 14 14 14 14 14 14 14 14 14 14 14 14 14 14 13 13 13 13 13 13 13 13 13 12 12 12 11 11 11 11 11
15 15 15 15 14 14 14 14 13 13 13 12 12 12 12 12 12 12 12 11 11 11 11 11 12 12 13 13 13 13 14 14 14 14 14 14 14 14 14 14 14 14 14 14 14 14 14 14 13 13 13 13 13 13 13 13 13 13 13 13 12 12 12 11 11 11 11 11 11
14 14 14 14 14 14 14 14 14 13 13 13 12 12 12 12 12 12 12 12 12 12 12 12 13 13 13 13 13 13 14 14 14 14 14 14 14 14 14 14 14 14 14 14 14 13 13 13 13 13 13 13 13 13 13 13 13 13 12 12 12 11 11 11 11 11 10 10 10
14 14 14 14 14 14 14 14 14 14 14 13 13 13 12 12 12 12 12 12 12 12 12 12 13 13 13 13 13 13 14 14 14 14 14 14 14 14 14 14 14 14 14 13 13 13 13 13 13 13 13 13 13 13 13 13 12 12 12 11 11 11 11 10 10 10 10 10 10
13 13 13 13 14 14 14 14 14 14 14 13 13 13 13 13 12 12 12 12 12 12 12 12 13 13 13 13 13 13 14 14 14 14 14 14 14 14 14 13 13 13 13 13 13 13 13 13 13 13 13 13 13 13 13 12 12 11 11 11 10 10 10 10 10 10 9 9 9
13 13 13 13 13 13 13 13 13 13 13 13 13 13 13 13 13 13 13 12 12 12 12 12 13 13 13 13 13 13 13 13 13 13 13 13 13 13 13 13 13 13 13 13 13 13 13 13 13 13 13 13 13 12 12 12 11 11 10 10 9 9 9 9 9 9 9 9 9
12 12 12 12 13 13 13 13 13 13 13 13 13 13 13 13 13 13 13 13 13 13 13 13 13 13 13 13 13 13 13 13 13 13 13 13 13 13 13 13 13 13 13 13 13 13 13 12 12 12 12 12 12 12 12 11 10 10 9 9 9 9 9 9 9 9 8 8 8
11 11 11 11 12 12 12 13 13 13 13 13 13 13 13 13 13 13 13 13 13 13 13 13 13 13 13 13 13 13 13 13 13 13 13 13 13 13 13 13 13 13 13 12 12 12 12 12 12 12 12 12 12 12 11 10 9 9 8 8 8 8 8 8 8 8 8 8 8
11 11 11 11 11 11 11 12 12 13 13 13 13 13 13 13 13 13 13 13 13 13 13 13 13 13 13 13 13 13 13 12 12 12 12 12 13 13 13 13 12 12 12 12 12 12 12 12 12 12 12 12 11 11 10 10 9 8 8 7 7 7 7 7 7 7 7 7 8
11 11 11 11 11 11 11 11 11 12 12 12 12 13 13 13 13 13 13 13 13 13 13 13 13 13 12 12 12 12 12 12 12 12 12 12 12 12 12 12 12 12 12 12 12 12 12 12 12 12 12 12 11 10 10 9 8 8 7 7 7 7 7 7 7 7 7 7 7
11 11 10 10 10 10 10 11 11 11 11 11 11 12 12 13 13 14 13 13 12 12 12 12 12 12 12 12 12 12 12 12 12 12 12 12 12 12 12 12 12 12 12 12 12 12 12 12 12 12 12 11 10 10 9 9 8 7 7 7 7 7 7 7 7 7 7 7 7
11 10 10 10 10 10 10 10 10 10 10 10 11 11 12 12 13 13 13 12 12 12 12 12 11 11 11 11 12 12 12 12 12 12 12 12 12 12 12 12 12 12 12 12 12 12 12 12 12 12 11 11 10 9 9 8 8 7 7 7 6 6 6 6 7 7 7 7 7
11 10 10 10 10 10 10 10 10 10 10 10 10 11 11 12 12 12 12 11 11 11 11 11 11 11 11 11 11 11 11 11 12 12 12 12 12 12 12 12 12 12 12 12 12 12 12 12 12 11 11 10 10 9 9 8 8 7 7 7 6 6 6 6 6 6 7 7 7
10 10 10 10 10 9 9 9 9 9 10 10 10 11 11 11 11 11 11 11 11 11 11 11 11 11 11 11 11 11 11 11 11 11 11 12 12 12 12 12 12 12 12 12 12 12 11 11 11 11 10 10 10 9 9 8 8 7 7 6 6 6 6 6 6 6 6 6 7
10 10 10 10 9 9 9 9 9 9 9 9 10 10 10 11 11 10 10 10 10 10 10 10 11 11 11 11 11 11 11 11 11 11 11 11 11 12 12 12 12 12 12 12 12 11 11 11 10 10 10 9 9 9 8 8 7 7 7 6 6 6 6 6 6 6 6 6 6
10 10 9 9 9 9 9 9 9 9 9 9 9 9 10 10 10 10 10 10 10 10 10 10 10 10 11 11 11 11 11 11 11 11 11 11 11 11 11 11 11 12 12 11 11 11 11 10 10 10 9 9 8 8 8 8 7 7 6 6 6 6 6 5 5 5 6 6 6
10 9 9 9 9 9 8 8 8 8 8 9 9 9 9 9 9 9 9 10 10 10 10 10 10 10 10 11 11 11 11 11 11 11 11 11 11 11 11 11 11 11 11 11 11 11 10 10 10 9 9 8 8 8 7 7 7 7 7 6 6 6 6 5 5 5 6 6 6
9 9 9 9 8 8 8 8 8 8 8 8 8 8 9 9 9 9 9 9 10 10 10 10 10 10 10 10 11 11 11 11 11 11 11 11 11 11 11 11 11 11 11 11 11 10 10 10 9 9 9 8 8 7 7 7 7 6 6 6 6 6 6 6 5 5 5 6 6
9 9 8 8 8 8 8 8 8 8 8 8 8 8 8 8 9 9 9 9 9 10 10 10 10 10 10 10 10 10 10 11 11 11 11 11 11 11 11 11 11 11 11 11 10 10 10 10 9 9 8 8 8 7 7 7 6 6 6 6 6 6 6 6 5 5 5 5 6
9 8 8 8 8 8 7 8 8 8 8 8 8 8 8 8 8 9 9 9 9 9 9 10 10 10 10 10 10 10 10 10 11 11 11 11 11 11 11 11 11 11 10 10 10 10 9 9 9 9 8 8 8 7 7 7 6 6 6 6 6 6 6 6 5 5 5 5 5
9 8 8 8 7 7 7 7 7 7 7 7 8 8 8 8 8 8 9 9 9 9 9 9 10 10 10 10 10 10 10 10 10 11 11 11 11 11 11 10 10 10 10 10 10 9 9 9 9 9 9 8 8 8 8 7 7 6 6 6 6 6 6 5 5 5 5 5 5
8 8 8 7 7 7 7 7 7 7 7 7 7 7 8 8 8 8 8 9 9 9 9 9 9 9 10 10 10 10 10 10 10 10 10 11 10 10 10 10 10 10 10 10 9 9 9 9 9 9 8 8 8 8 8 7 7 7 6 6 6 6 6 6 6 5 5 5 5
8 8 8 7 7 7 7 7 7 7 7 7 7 7 7 8 8 8 8 8 8 9 9 9 9 9 9 9 9 10 10 10 10 10 10 10 10 10 10 10 10 9 9 9 9 9 9 9 9 9 8 8 8 8 7 7 7 7 6 6 6 5 6 6 5 5 5 5 5
8 8 7 7 7 6 6 6 6 7 7 7 7 7 7 7 7 8 8 8 8 8 8 9 9 9 9 9 9 9 9 9 10 10 10 10 10 10 10 9 9 9 9 9 9 9 9 9 9 8 8 8 7 7 7 7 6 6 5 5 5 5 5 5 5 5 4 4 4
8 8 7 7 7 6 6 6 6 6 6 7 7 7 7 7 7 7 8 8 8 8 8 8 8 9 9 9 9 9 9 9 9 9 9 9 10 9 9 9 9 9 9 9 9 9 9 8 8 8 8 7 7 6 6 6 5 5 4 4 4 4 4 4 4 4 4 3 3
8 8 7 7 7 6 6 6 6 6 6 6 6 6 7 7 7 7 7 7 8 8 8 8 8 8 8 9 9 9 9 9 9 9 9 9 9 9 9 9 9 8 8 9 8 8 8 8 8 8 7 7 6 6 5 5 4 4 3 3 3 2 2 2 2 2 2 2 2
8 8 7 7 7 6 6 6 6 6 6 6 6 6 6 6 7 7 7 7 7 7 7 8 8 8 8 8 8 8 8 8 8 9 9 9 9 9 8 8 8 8 8 8 8 8 7 7 7 7 7 7 6 5 5 4 3 3 2 2 2 2 2 1 1 1 1 1 1
8 8 7 7 7 6 6 6 5 5 5 6 6 6 6 6 6 6 6 7 7 7 7 7 8 8 8 8 8 8 8 8 8 8 8 8 8 8 8 8 8 8 8 7 7 7 7 7 7 7 6 6 5 5 4 3 2 2 1 1 1 1 1 1 1 1 0 0 1
8 8 7 7 7 6 6 5 5 5 5 5 5 5 5 6 6 6 6 6 6 7 7 7 7 7 7 8 8 8 8 8 8 8 8 8 8 8 8 7 7 7 7 7 7 6 6 6 6 6 5 5 4 4 3 2 1 1 0 0 0 0 0 0 0 -0 -0 0 0
8 8 7 7 7 6 6 6 5 5 5 5 5 5 5 5 5 6 6 6 6 6 7 7 7 7 7 7 7 7 7 7 7 7 7 8 8 7 7 7 7 7 6 6 6 6 6 5 5 5 4 4 3 2 1 0 0 -0 -0 -0 -0 -0 -0 -0 -0 -0 -0 -0 0
8 8 7 7 7 6 6 6 5 5 5 5 5 5 5 5 5 6 6 6 6 6 6 6 7 7 7 7 7 7 7 7 7 7 7 7 7 7 7 6 6 6 6 6 5 5 5 5 4 4 3 2 2 1 0 -0 -0 -0 -0 -0 -0 -0 -0 -0 -1 -1 -0 -0 0
8 8 7 7 7 6 6 6 5 5 5 5 5 5 5 5 6 6 6 6 6 6 6 6 6 6 6 6 7 7 7 7 7 7 7 7 7 7 6 6 6 6 5 5 5 5 4 4 3 3 2 1 1 0 0 -0 -0 -0 -0 -0 -0 -0 -0 -0 -0 -0 -0 0 0
8 7 7 7 6 6 6 6 5 5 5 5 5 5 5 5 5 6 6 6 6 6 6 6 6 6 6 6 6 6 6 6 6 7 7 7 7 6 6 6 5 5 5 5 4 4 4 4 3 2 1 1 1 0 0 0 -0 -0 -0 -0 -0 0 0 -0 -0 -0 0 0 1
8 7 7 7 6 6 6 6 5 5 5 5 5 5 5 5 5 5 5 5 5 5 6 6 6 6 6 6 6 6 6 6 6 6 6 6 6 6 6 5 5 4 4 4 4 4 4 3 2 2 1 1 1 1 1 0 0 0 0 0 0 0 0 0 0 0 1 1 1
7 7 7 6 6 6 6 5 5 5 5 5 5 5 4 4 4 5 5 5 5 5 5 5 5 5 5 5 5 5 6 6 6 6 6 6 6 6 5 5 4 4 4 4 4 3 3 3 2 2 2 2 1 1 1 1 1 1 1 1 1 1 1 1 1 1 1 1 1
7 6 6 6 6 6 5 5 5 5 5 4 4 4 4 4 4 4 4 4 4 4 5 5 5 5 5 5 5 5 6 6 6 6 6 6 6 5 5 4 4 3 3 3 3 3 3 3 2 2 2 2 2 1 1 1 1 1 1 1 1 1 1 1 1 1 1 1 1
6 6 6 6 6 5 5 5 5 5 4 4 4 4 4 4 3 3 3 4 4 4 4 4 4 4 4 5 5 5 5 6 6 6 6 6 5 5 5 4 3 3 3 3 3 2 2 2 2 2 2 2 2 2 2 1 1 1 1 1 2 2 1 1 1 1 1 1 0
Height
1509 1509 1508 1508 1508 1509 1510 1511 1513 1514 1514 1514 1514 1515 1516 1517 1518 1518 1519 1521 1522 1522 1522 1522 1523 1523 1523 1523 1523 1523 1523 1523 1523 1523 1524 1525 1525 1525 1525 1525 1525 1525 1525 1525 1525 1525 1525 1524 1524 1524 1524 1524 1524 1523 1523 1522 1522 1522 1521 1521 1520 1519 1519 1518 1518 1517 1517 1517 1516
1508 1507 1507 1508 1509 1510 1512 1514 1515 1516 1516 1516 1516 1516 1516 1517 1517 1517 1518 1519 1520 1520 1521 1522 1522 1522 1522 1521 1521 1521 1521 1521 1522 1522 1523 1523 1523 1523 1523 1523 1523 1523 1523 1523 1523 1523 1523 1522 1522 1522 1522 1522 1522 1521 1521 1521 1520 1520 1519 1519 1518 1517 1517 1516 1516 1516 1515 1514 1514
1507 1507 1507 1507 1508 1509 1511 1513 1515 1516 1517 1517 1516 1515 1515 1515 1516 1517 1517 1518 1518 1519 1520 1521 1521 1520 1519 1519 1519 1519 1519 1520 1520 1521 1521 1522 1522 1522 1522 1522 1522 1521 1521 1521 1521 1521 1521 1521 1521 1520 1520 1520 1520 1519 1519 1518 1518 1518 1517 1517 1516 1516 1515 1514 1514 1513 1513 1512 1512
1506 1506 1507 1507 1508 1509 1510 1510 1511 1512 1512 1512 1512 1513 1513 1514 1514 1515 1515 1516 1517 1518 1518 1518 1518 1517 1516 1517 1517 1517 1518 1518 1518 1519 1519 1520 1520 1520 1520 1520 1520 1519 1519 1519 1519 1519 1519 1519 1519 1518 1518 1517 1517 1517 1517 1517 1516 1516 1515 1515 1514 1514 1513 1512 1512 1512 1511 1510 1510
1505 1505 1506 1506 1507 1507 1508 1509 1509 1510 1510 1511 1511 1511 1511 1512 1512 1512 1513 1513 1515 1516 1516 1516 1515 1515 1515 1516 1516 1516 1516 1517 1517 1517 1517 1517 1518 1518 1518 1518 1518 1518 1518 1518 1518 1517 1517 1517 1517 1516 1516 1516 1515 1515 1515 1515 1514 1514 1513 1513 1512 1512 1511 1511 1510 1510 1509 1508 1508
1504 1505 1505 1506 1506 1506 1507 1507 1508 1508 1509 1510 1510 1510 1510 1510 1511 1512 1512 1513 1514 1515 1515 1515 1515 1515 1514 1514 1514 1514 1515 1515 1515 1515 1515 1516 1516 1516 1516 1516 1516 1516 1516 1516 1516 1516 1515 1515 1515 1514 1514 1514 1513 1513 1513 1512 1512 1511 1511 1510 1510 1509 1509 1508 1508 1507 1507 1507 1506
1503 1503 1504 1504 1504 1504 1505 1505 1506 1507 1507 1508 1508 1509 1509 1510 1511 1512 1512 1513 1514 1514 1514 1514 1513 1513 1512 1512 1513 1513 1513 1513 1513 1513 1513 1514 1514 1514 1514 1514 1514 1514 1514 1514 1514 1514 1513 1513 1513 1512 1512 1512 1511 1511 1511 1510 1509 1509 1508 1508 1507 1507 1507 1506 1506 1506 1505 1505 1504
1501 1502 1502 1502 1502 1503 1503 1503 1504 1504 1505 1506 1507 1507 1508 1509 1510 1511 1512 1512 1512 1512 1512 1512 1511 1511 1511 1511 1511 1511 1511 1512 1512 1512 1512 1512 1512 1512 1512 1512 1512 1512 1512 1512 1512 1512 1511 1511 1511 1510 1510 1509 1509 1509 1508 1508 1507 1507 1506 1506 1505 1505 1505 1504 1504 1504 1503 1503 1503
1500 1500 1500 1501 1501 1501 1501 1502 1502 1502 1503 1504 1505 1506 1507 1507 1508 1509 1509 1510 1510 1510 1509 1509 1509 1509 1509 1509 1509 1509 1510 1510 1510 1510 1510 1510 1510 1510 1511 1511 1511 1511 1511 1511 1510 1510 1509 1509 1509 1508 1508 1507 1507 1506 1506 1505 1505 1504 1504 1503 1503 1503 1502 1502 1502 1502 1502 1501 1501
1499 1499 1499 1500 1500 1500 1500 1500 1501 1501 1501 1502 1502 1503 1504 1505 1506 1507 1507 1507 1507 1507 1507 1507 1507 1507 1507 1507 1507 1508 1508 1508 1508 1508 1508 1508 1508 1509 1509 1509 1509 1509 1509 1508 1508 1508 1507 1507 1507 1506 1506 1505 1505 1504 1503 1503 1503 1502 1502 1502 1501 1501 1501 1501 1500 1500 1500 1500 1500
1498 1498 1498 1498 1499 1499 1499 1499 1499 1499 1500 1500 1500 1501 1502 1502 1503 1504 1505 1506 1506 1506 1506 1506 1506 1506 1506 1506 1506 1506 1506 1507 1507 1507 1507 1507 1507 1507 1507 1507 1507 1507 1507 1507 1506 1506 1505 1505 1504 1504 1503 1503 1502 1502 1501 1501 1501 1500 1500 1499 1499 1499 1499 1499 1499 1499 1498 1498 1498
1497 1497 1497 1497 1497 1497 1497 1497 1497 1498 1498 1498 1498 1499 1499 1499 1500 1501 1502 1504 1504 1504 1504 1504 1504 1504 1504 1504 1504 1505 1505 1505 1505 1506 1505 1505 1505 1505 1505 1505 1505 1505 1505 1505 1504 1504 1503 1503 1502 1502 1501 1501 1500 1500 1499 1499 1499 1498 1498 1498 1497 1497 1497 1497 1497 1497 1497 1497 1497
1495 1495 1495 1496 1496 1496 1496 1496 1496 1496 1496 1496 1496 1496 1496 1497 1497 1498 1500 1501 1502 1502 1502 1502 1503 1502 1502 1503 1503 1503 1503 1504 1504 1504 1504 1504 1504 1504 1504 1504 1503 1503 1503 1503 1502 1502 1501 1501 1500 1500 1499 1499 1498 1498 1497 1497 1497 1497 1497 1496 1496 1496 1496 1496 1496 1496 1496 1496 1496
1493 1493 1493 1493 1494 1494 1494 1494 1494 1495 1495 1494 1494 1494 1493 1493 1494 1495 1497 1498 1499 1500 1500 1500 1501 1501 1501 1502 1502 1502 1502 1502 1502 1502 1502 1502 1502 1502 1502 1502 1502 1502 1501 1501 1500 1500 1499 1498 1498 1497 1497 1497 1496 1496 1496 1495 1495 1495 1495 1495 1495 1495 1494 1494 1494 1494 1494 1494 1494
1491 1491 1491 1492 1492 1492 1492 1492 1493 1493 1493 1493 1492 1492 1491 1491 1491 1493 1494 1496 1496 1497 1498 1498 1499 1499 1500 1500 1500 1501 1501 1501 1501 1501 1501 1501 1501 1500 1500 1500 1500 1499 1499 1498 1498 1497 1497 1496 1496 1495 1495 1494 1494 1494 1494 1493 1493 1493 1493 1493 1493 1493 1493 1493 1493 1493 1493 1493 1493
1489 1489 1489 1490 1490 1490 1491 1491 1491 1491 1491 1491 1491 1491 1490 1489 1489 1491 1492 1493 1494 1495 1496 1497 1497 1497 1498 1498 1499 1499 1499 1499 1499 1499 1499 1499 1499 1498 1498 1498 1497 1497 1497 1496 1496 1495 1495 1494 1493 1493 1492 1492 1492 1492 1492 1492 1492 1491 1491 1491 1491 1492 1492 1492 1492 1492 1492 1492 1492
1487 1487 1487 1488 1488 1488 1489 1489 1489 1490 1490 1489 1489 1489 1488 1487 1488 1489 1490 1491 1492 1493 1494 1495 1495 1496 1496 1497 1497 1497 1497 1497 1497 1497 1497 1497 1497 1496 1496 1496 1495 1495 1495 1494 1494 1493 1492 1492 1491 1491 1490 1490 1490 1490 1490 1490 1490 1489 1489 1489 1489 1490 1490 1490 1490 1490 1490 1490 1490
1485 1486 1486 1486 1486 1487 1487 1487 1488 1488 1488 1488 1487 1487 1487 1486 1487 1487 1488 1490 1491 1492 1492 1493 1494 1494 1495 1495 1495 1495 1496 1496 1496 1495 1495 1495 1494 1494 1494 1493 1493 1493 1492 1492 1492 1491 1490 1490 1489 1489 1488 1488 1488 1488 1488 1488 1488 1488 1487 1487 1487 1487 1487 1488 1488 1488 1488 1489 1489
1484 1484 1484 1484 1484 1485 1486 1486 1487 1487 1487 1486 1486 1485 1485 1485 1486 1487 1487 1488 1489 1490 1491 1492 1492 1492 1493 1493 1493 1493 1494 1493 1493 1493 1493 1492 1492 1492 1492 1491 1491 1491 1490 1490 1489 1489 1488 1488 1487 1487 1487 1487 1486 1486 1486 1486 1486 1486 1486 1486 1486 1486 1486 1486 1486 1486 1487 1487 1487
1482 1482 1482 1482 1483 1484 1484 1485 1485 1485 1485 1484 1484 1484 1484 1484 1485 1486 1486 1487 1488 1489 1490 1490 1491 1491 1491 1492 1492 1492 1492 1491 1491 1491 1491 1490 1490 1490 1489 1489 1489 1488 1488 1487 1487 1487 1486 1486 1486 1485 1485 1485 1484 1484 1484 1484 1484 1484 1484 1484 1484 1484 1484 1484 1484 1484 1485 1485 1486
1481 1481 1481 1481 1482 1482 1483 1483 1483 1483 1483 1483 1483 1483 1483 1483 1484 1485 1486 1486 1487 1488 1488 1489 1489 1489 1489 1490 1490 1489 1489 1489 1489 1489 1488 1488 1488 1487 1487 1487 1487 1486 1486 1485 1485 1484 1484 1484 1484 1483 1483 1483 1482 1482 1482 1482 1482 1482 1482 1482 1482 1482 1482 1482 1482 1482 1483 1483 1484
1479 1479 1479 1480 1480 1481 1481 1481 1482 1482 1481 1481 1481 1482 1482 1482 1483 1484 1484 1485 1486 1487 1487 1487 1487 1487 1487 1487 1487 1487 1487 1487 1487 1487 1487 1486 1486 1486 1485 1485 1485 1484 1484 1483 1483 1483 1482 1482 1482 1482 1482 1481 1481 1481 1480 1480 1480 1479 1479 1479 1479 1480 1480 1480 1480 1481 1481 1482 1482
1477 1477 1478 1478 1479 1479 1479 1480 1480 1480 1480 1480 1480 1481 1481 1482 1482 1483 1483 1484 1484 1485 1485 1485 1486 1486 1486 1486 1486 1486 1485 1485 1485 1485 1485 1484 1484 1484 1483 1483 1483 1482 1482 1482 1481 1481 1481 1481 1480 1480 1480 1479 1479 1479 1479 1478 1478 1477 1477 1477 1477 1477 1477 1478 1478 1478 1479 1480 1480
1476 1476 1476 1476 1477 1477 1477 1478 1478 1478 1478 1479 1479 1479 1480 1480 1481 1482 1482 1482 1483 1483 1483 1484 1484 1484 1484 1484 1484 1484 1484 1483 1483 1483 1483 1482 1482 1482 1482 1481 1481 1480 1480 1480 1480 1479 1479 1479 1478 1478 1478 1477 1477 1477 1477 1476 1476 1476 1475 1475 1475 1475 1476 1476 1476 1477 1477 1477 1478
1474 1474 1474 1475 1475 1475 1476 1476 1476 1477 1477 1477 1478 1478 1479 1479 1480 1480 1481 1481 1482 1482 1482 1482 1482 1482 1482 1482 1482 1482 1482 1482 1482 1481 1481 1481 1480 1480 1480 1479 1479 1479 1478 1478 1478 1477 1477 1477 1476 1476 1475 1475 1475 1475 1474 1474 1474 1474 1473 1473 1473 1473 1473 1474 1474 1474 1475 1475 1475
1473 1473 1472 1473 1473 1473 1474 1474 1475 1475 1476 1476 1477 1477 1477 1478 1478 1479 1479 1480 1480 1480 1480 1480 1480 1480 1481 1481 1481 1480 1480 1480 1480 1479 1479 1479 1478 1478 1478 1477 1477 1477 1477 1476 1476 1476 1475 1475 1474 1474 1473 1473 1472 1472 1472 1472 1472 1472 1472 1472 1471 1471 1471 1472 1472 1472 1472 1473 1473
1471 1471 1471 1471 1472 1472 1472 1472 1473 1474 1474 1474 1475 1475 1476 1476 1477 1477 1477 1478 1478 1478 1478 1479 1479 1479 1479 1479 1479 1479 1478 1478 1478 1477 1477 1477 1477 1476 1476 1476 1476 1475 1475 1474 1474 1474 1473 1473 1472 1472 1471 1471 1470 1470 1470 1469 1469 1469 1469 1469 1469 1469 1469 1470 1470 1470 1470 1471 1471
1470 1470 1470 1470 1470 1470 1470 1471 1471 1472 1472 1473 1473 1474 1474 1475 1475 1476 1476 1476 1477 1477 1477 1477 1477 1477 1477 1477 1477 1477 1477 1476 1476 1476 1476 1475 1475 1475 1474 1474 1474 1473 1473 1472 1472 1472 1471 1471 1470 1470 1469 1469 1468 1468 1467 1467 1467 1467 1467 1467 1467 1467 1467 1468 1468 1468 1468 1469 1469
1468 1468 1468 1468 1468 1468 1469 1469 1470 1470 1471 1471 1472 1472 1472 1473 1473 1474 1474 1475 1475 1475 1475 1475 1475 1475 1475 1475 1475 1475 1475 1475 1475 1474 1474 1474 1473 1473 1472 1472 1472 1472 1471 1471 1470 1470 1469 1469 1468 1468 1467 1467 1466 1466 1466 1465 1465 1466 1466 1466 1466 1466 1466 1466 1466 1467 1467 1467 1467
1467 1467 1466 1466 1466 1467 1467 1467 1468 1468 1469 1470 1470 1470 1471 1471 1472 1472 1472 1473 1473 1473 1473 1473 1473 1473 1474 1474 1474 1474 1473 1473 1473 1473 1472 1472 1472 1471 1471 1470 1470 1470 1469 1469 1468 1468 1467 1467 1467 1466 1466 1465 1464 1464 1464 1464 1464 1464 1464 1464 1464 1464 1464 1465 1465 1465 1466 1466 1466
1465 1465 1465 1465 1465 1465 1465 1466 1466 1467 1467 1468 1468 1468 1469 1469 1470 1470 1471 1471 1471 1472 1472 1472 1472 1472 1472 1472 1472 1472 1472 1472 1472 1471 1471 1470 1470 1469 1469 1469 1468 1468 1467 1467 1467 1466 1466 1465 1465 1464 1463 1463 1462 1462 1462 1462 1462 1462 1463 1463 1463 1463 1463 1463 1464 1464 1464 1465 1465
1463 1463 1463 1463 1463 1463 1463 1464 1464 1465 1465 1466 1466 1467 1467 1467 1468 1468 1469 1469 1469 1469 1470 1470 1470 1470 1470 1470 1470 1470 1470 1470 1470 1469 1469 1468 1468 1467 1467 1467 1467 1466 1466 1465 1465 1464 1464 1464 1463 1462 1462 1461 1461 1461 1461 1461 1462 1462 1462 1462 1462 1462 1462 1462 1463 1463 1463 1464 1464
1461 1461 1461 1461 1461 1462 1462 1462 1462 1463 1463 1464 1464 1464 1465 1465 1466 1466 1467 1467 1467 1467 1468 1468 1468 1468 1468 1468 1468 1468 1468 1468 1468 1467 1467 1467 1466 1466 1466 1465 1465 1464 1464 1463 1463 1463 1462 1462 1461 1461 1460 1460 1460 1460 1460 1460 1460 1461 1461 1461 1461 1461 1461 1462 1462 1462 1463 1463 1463
1459 1459 1459 1459 1460 1460 1460 1460 1461 1461 1461 1462 1462 1462 1462 1463 1463 1464 1464 1465 1465 1465 1466 1466 1466 1466 1467 1466 1466 1466 1466 1466 1466 1466 1465 1465 1465 1464 1464 1464 1463 1462 1462 1462 1462 1461 1461 1460 1460 1459 1459 1459 1459 1459 1459 1459 1460 1460 1460 1460 1460 1460 1461 1461 1461 1462 1462 1462 1462
1457 1457 1457 1458 1458 1458 1458 1458 1459 1459 1459 1459 1460 1460 1460 1461 1461 1462 1462 1463 1463 1463 1463 1464 1464 1464 1464 1464 1465 1465 1465 1465 1464 1464 1463 1463 1463 1463 1462 1462 1462 1461 1461 1460 1460 1460 1459 1459 1459 1458 1458 1458 1458 1458 1458 1459 1459 1459 1459 1460 1460 1460 1460 1460 1461 1461 1461 1462 1462
1455 1456 1456 1456 1456 1456 1457 1457 1457 1457 1457 1457 1457 1458 1458 1459 1459 1460 1461 1461 1461 1461 1461 1462 1462 1462 1462 1462 1463 1463 1463 1463 1462 1462 1462 1462 1461 1461 1461 1460 1460 1459 1459 1459 1458 1458 1458 1458 1458 1458 1457 1457 1457 1458 1458 1458 1458 1459 1459 1459 1459 1459 1459 1460 1460 1460 1461 1461 1461
1453 1454 1454 1454 1454 1454 1455 1455 1455 1455 1455 1455 1456 1456 1456 1457 1457 1458 1458 1458 1459 1459 1459 1459 1460 1460 1460 1461 1461 1461 1461 1461 1461 1460 1460 1460 1460 1460 1459 1459 1458 1457 1457 1457 1457 1457 1457 1457 1457 1457 1457 1457 1457 1457 1457 1458 1458 1458 1458 1459 1459 1459 1459 1459 1459 1460 1460 1460 1461
1452 1452 1452 1452 1452 1452 1453 1453 1453 1453 1453 1453 1454 1454 1454 1455 1455 1456 1456 1456 1456 1457 1457 1457 1457 1458 1458 1458 1458 1459 1459 1459 1459 1459 1458 1458 1458 1458 1457 1457 1456 1456 1456 1456 1456 1456 1456 1456 1457 1457 1457 1457 1457 1457 1457 1457 1457 1457 1458 1458 1458 1458 1458 1459 1459 1459 1459 1460 1460
1450 1450 1450 1450 1450 1451 1451 1451 1451 1451 1451 1452 1452 1452 1452 1453 1453 1453 1453 1454 1454 1454 1455 1455 1455 1456 1456 1456 1456 1457 1457 1457 1457 1457 1457 1457 1457 1456 1456 1455 1455 1455 1455 1455 1455 1455 1455 1456 1456 1456 1456 1456 1456 1457 1457 1457 1457 1457 1457 1457 1457 1458 1458 1458 1458 1459 1459 1459 1460
1447 1448 1448 1448 1448 1448 1449 1449 1449 1449 1449 1450 1450 1450 1450 1450 1451 1451 1451 1451 1452 1452 1452 1452 1453 1453 1453 1453 1454 1454 1455 1455 1455 1455 1455 1455 1455 1454 1454 1454 1453 1453 1453 1453 1454 1454 1454 1455 1455 1455 1455 1456 1456 1456 1456 1456 1456 1456 1456 1457 1457 1457 1457 1457 1458 1458 1458 1459 1459
1446 1446 1446 1446 1446 1447 1447 1447 1447 1447 1447 1447 1447 1447 1448 1448 1448 1448 1448 1449 1449 1449 1449 1450 1450 1451 1451 1451 1451 1452 1452 1452 1452 1452 1452 1452 1453 1452 1452 1452 1452 1452 1452 1452 1452 1453 1453 1453 1454 1454 1454 1455 1455 1455 1455 1455 1455 1455 1456 1456 1456 1456 1457 1457 1457 1457 1458 1458 1458
Wind_Speed
12 12 12 13 14 14 15 20 22 23 23 20 18 18 20 22 23 24 25 27 27 27 26 26 25 25 26 26 27 28 29 29 28 26 24 25 27 28 29 29 29 29 28 28 28 28 29 29 29 29 29 29 29 29 29 29 29 29 29 30 30 30 31 31 31 31 31 30 30
10 10 11 13 13 11 8 10 12 14 17 19 22 23 23 22 22 23 25 26 26 26 26 25 26 27 28 29 29 29 28 27 25 25 25 27 28 28 29 29 28 28 28 28 28 28 28 29 28 28 28 28 28 28 28 29 29 29 30 30 30 31 31 31 31 31 30 30 30
13 13 15 17 18 16 13 11 13 15 17 20 24 25 24 23 22 23 24 24 25 25 26 27 28 29 29 29 28 27 26 25 25 25 27 28 28 28 28 28 28 28 28 28 28 28 28 28 28 28 28 28 28 28 28 29 29 30 30 30 30 31 31 31 30 30 30 29 29
12 13 15 18 19 19 18 17 17 18 18 19 19 19 20 21 22 22 23 24 25 26 27 28 28 27 26 25 25 24 25 25 26 26 27 28 28 28 28 28 28 28 28 28 28 28 28 28 28 28 28 28 28 28 29 29 30 30 30 30 30 30 30 30 29 29 29 28 28
11 11 12 14 16 17 17 17 17 18 18 19 19 19 19 19 20 21 22 23 25 26 26 25 24 24 24 24 25 25 25 26 26 27 27 28 28 28 28 28 28 28 28 28 28 28 28 28 28 28 28 28 28 29 30 30 30 31 30 30 30 29 29 28 28 27 27 27 27
14 13 13 13 14 14 15 15 15 16 17 18 19 20 21 22 22 23 23 23 24 24 25 25 25 25 25 25 26 26 26 26 27 27 27 28 28 28 28 28 28 28 28 28 28 28 28 28 28 28 28 28 29 30 30 31 31 31 31 30 29 28 27 27 26 26 26 26 25
18 17 17 16 16 15 14 14 14 14 15 16 17 18 20 21 22 23 24 24 25 26 26 27 27 26 26 26 26 26 26 27 27 27 28 28 28 28 28 28 28 28 28 28 28 28 28 28 28 28 28 29 30 31 31 31 31 31 30 29 28 27 26 26 26 25 25 24 24
19 20 20 19 19 18 16 15 14 14 14 14 15 16 18 20 22 23 24 25 26 26 27 27 26 26 26 26 27 27 27 27 27 28 28 28 28 27 27 27 27 27 27 27 28 28 28 28 28 28 29 30 31 31 31 31 31 31 30 28 27 26 25 25 24 24 23 23 22
20 21 21 21 21 20 18 17 16 15 15 15 15 16 17 19 21 22 24 25 26 26 26 27 27 27 27 27 27 27 27 28 28 28 28 27 27 27 27 27 27 27 27 27 27 27 27 28 28 29 30 30 31 31 31 31 31 30 28 27 26 25 24 23 22 22 21 21 20
21 21 22 22 22 22 21 20 19 18 17 17 17 17 18 19 20 22 24 25 26 27 27 27 27 27 28 28 28 28 28 28 28 28 27 27 26 26 26 26 26 27 27 27 27 27 28 28 28 29 30 30 31 31 31 30 29 28 26 25 24 23 22 21 21 20 19 19 18
22 22 23 23 23 23 23 23 22 21 21 20 20 20 21 21 22 23 24 25 26 27 27 28 28 28 28 28 28 28 28 28 28 28 27 26 26 26 26 26 26 26 26 27 27 27 28 28 29 29 30 30 30 30 29 28 26 25 23 22 21 21 21 20 20 18 17 17 16
22 23 23 24 24 24 24 25 24 24 24 24 23 23 23 23 24 25 26 27 28 28 28 28 29 29 29 29 29 29 29 29 28 27 26 26 25 25 25 25 26 26 26 27 27 28 28 28 29 29 30 30 29 28 27 25 24 22 21 20 20 20 19 19 18 17 16 16 16
23 24 24 25 25 25 26 26 26 26 26 26 26 25 25 24 25 26 27 29 30 30 30 30 31 31 31 30 30 30 29 28 27 26 26 25 25 25 25 25 25 26 26 27 27 28 28 28 29 29 29 29 27 26 24 23 21 20 20 19 19 18 18 18 17 16 16 16 17
23 24 24 25 26 26 27 27 27 27 26 26 26 26 25 25 27 28 29 30 31 31 31 32 32 32 31 30 29 28 27 26 26 25 25 24 24 24 24 25 25 26 26 27 27 28 28 28 29 29 28 27 25 24 22 21 20 20 19 19 18 18 18 17 17 16 16 17 17
24 24 24 24 25 26 26 27 26 26 26 25 25 25 25 26 29 31 31 32 32 32 32 32 31 31 29 28 27 26 26 25 25 24 24 24 24 24 24 25 25 26 26 27 27 27 28 28 29 28 27 26 24 23 22 21 20 20 19 19 19 19 19 18 18 17 17 17 17
24 24 24 24 25 25 26 26 25 25 25 24 24 25 25 27 30 31 31 31 30 31 31 30 29 28 27 26 25 25 24 24 24 24 23 23 23 24 24 25 25 26 26 26 27 27 27 28 28 27 26 25 24 23 22 21 21 20 20 20 19 20 20 20 19 18 18 18 18
24 24 24 24 25 25 25 24 24 24 24 24 24 25 26 27 28 28 28 28 28 28 28 27 26 26 25 25 24 24 23 23 23 23 23 23 24 24 24 25 26 26 26 26 26 26 26 26 26 26 25 25 24 23 21 21 21 21 21 20 20 21 21 21 21 20 19 18 18
24 24 24 24 24 24 24 24 23 23 23 23 23 24 25 25 25 25 25 25 25 25 25 25 24 24 23 23 23 22 22 22 23 23 23 23 24 24 25 25 25 25 25 25 25 25 25 25 25 25 25 25 24 23 21 21 21 21 21 21 21 22 22 23 22 21 20 19 19
22 23 24 24 24 24 23 23 23 23 22 22 22 22 22 23 23 23 23 24 24 24 23 23 22 22 22 21 21 21 22 22 22 23 23 24 24 24 24 24 25 25 24 24 24 24 24 24 24 25 25 25 24 23 22 21 21 21 21 22 22 23 23 23 23 22 21 21 20
21 22 23 23 23 23 23 22 22 22 22 22 21 21 21 21 22 22 23 23 23 22 22 21 21 20 20 21 21 21 21 22 22 23 23 23 24 24 24 24 24 24 24 24 24 24 23 23 24 24 24 24 24 23 23 22 21 21 21 22 23 23 23 23 23 23 22 22 22
20 21 22 22 22 22 22 22 22 22 22 21 21 21 21 21 22 22 22 22 22 21 20 20 19 19 20 20 20 21 21 22 22 22 22 23 23 23 23 23 23 23 23 23 23 23 23 23 23 23 23 23 23 23 23 23 22 22 22 22 23 23 24 24 23 23 23 23 23
20 20 21 21 22 22 22 22 22 22 22 22 21 21 21 21 22 22 22 21 21 20 19 19 19 19 19 19 20 20 20 21 21 22 22 22 22 22 23 23 23 23 23 23 23 23 23 23 23 23 22 22 22 22 22 23 23 23 23 23 23 23 23 24 23 24 23 24 24
19 20 20 21 22 22 23 23 23 23 23 22 22 22 21 22 22 22 21 21 20 19 18 18 18 18 19 19 19 19 20 20 21 21 21 21 21 22 22 22 22 22 22 22 23 23 23 23 23 23 23 23 22 22 22 23 23 24 24 23 23 23 23 23 24 24 24 24 24
19 19 20 20 21 22 23 24 24 24 23 23 22 22 22 22 22 22 21 20 19 19 18 18 18 18 18 18 19 19 19 20 20 20 21 21 21 21 21 21 21 22 22 22 23 23 23 24 24 24 24 24 23 23 23 23 23 24 24 24 24 24 24 24 24 24 24 25 25
18 19 19 20 21 23 24 24 24 24 23 23 22 22 22 22 22 22 21 20 19 19 18 18 18 18 18 18 18 18 19 19 19 20 20 20 20 20 21 21 21 21 22 22 23 23 24 24 24 25 25 25 24 24 24 24 24 24 24 24 24 24 24 24 24 24 24 25 25
18 19 19 20 21 23 24 25 25 24 24 23 23 23 23 23 23 23 22 21 20 19 19 18 18 18 18 18 18 18 18 19 19 19 19 19 19 20 20 21 21 21 22 22 23 23 24 24 25 25 26 26 25 25 24 24 24 24 24 24 24 24 24 24 23 23 24 24 24
18 19 19 20 21 23 24 25 25 25 24 24 24 23 23 24 24 23 23 22 21 20 19 19 19 18 18 18 17 17 18 18 18 19 19 19 19 20 20 20 21 21 22 22 23 23 23 24 24 25 25 25 25 25 25 25 24 24 23 23 23 23 23 23 23 23 23 23 23
18 18 19 20 21 23 24 25 25 25 25 25 24 24 24 24 24 24 23 23 22 21 20 20 19 19 18 18 17 17 17 18 18 19 19 19 19 20 20 20 21 21 22 22 22 23 23 24 24 24 24 24 25 25 25 25 24 23 23 23 23 22 22 22 22 22 22 22 21
18 18 19 20 21 22 24 25 26 26 25 25 25 25 25 25 25 25 24 24 23 22 21 21 20 20 19 18 18 18 18 18 19 19 19 19 19 20 20 20 20 21 21 22 22 23 23 23 24 24 23 23 23 24 24 23 23 22 22 22 22 22 21 21 20 20 19 19 19
18 18 19 20 21 22 23 25 25 25 26 26 26 26 26 26 26 26 25 25 24 23 23 22 22 21 20 19 19 18 19 19 19 19 20 20 20 20 20 20 20 20 21 21 22 22 23 23 23 23 22 22 21 21 21 21 20 20 19 19 19 19 19 18 18 18 17 17 16
18 19 19 20 20 22 23 24 25 26 26 27 27 27 28 27 27 27 26 26 25 25 24 24 23 22 21 20 20 20 20 20 20 20 20 20 20 20 20 20 20 20 21 21 21 22 22 22 22 21 20 19 19 19 19 18 17 16 15 14 14 14 14 14 14 13 13 13 14
19 19 20 20 20 21 22 23 25 26 27 27 28 28 29 29 28 28 27 27 27 26 26 25 24 23 22 22 21 21 21 21 21 21 21 21 21 20 20 19 19 20 20 20 21 21 21 20 20 18 17 16 16 16 16 15 13 12 11 11 11 10 9 8 7 8 9 10 12
20 20 20 20 20 21 22 23 24 26 27 28 29 29 29 29 29 29 29 28 28 27 27 26 25 24 23 23 22 22 22 22 22 22 22 22 21 20 19 19 19 19 19 19 19 19 19 18 17 16 14 14 14 14 13 12 10 9 9 9 9 8 7 5 5 6 7 9 11
20 20 21 21 21 21 22 23 24 25 27 28 29 30 30 30 30 30 29 29 29 29 28 27 26 26 25 24 23 23 23 23 23 23 23 23 22 20 19 18 18 18 18 18 18 17 17 16 15 13 12 11 11 10 9 8 8 7 7 7 8 8 7 6 6 7 9 10 10
21 21 21 21 22 22 22 23 24 25 27 28 29 29 30 30 30 30 30 30 30 30 29 29 28 27 26 26 25 24 24 23 23 24 24 24 22 20 18 17 17 17 17 17 16 15 15 14 13 11 10 9 8 7 7 6 6 7 7 8 9 8 8 7 8 9 10 10 10
21 21 21 21 22 23 23 23 24 25 26 27 28 28 29 29 30 30 30 30 30 30 30 30 29 29 28 27 26 25 24 24 24 24 25 24 22 20 18 17 17 17 16 15 14 14 13 12 11 9 8 6 6 5 6 6 7 8 8 9 10 9 8 8 9 10 10 10 10
21 20 20 21 22 23 24 24 25 25 26 26 27 27 27 28 28 29 30 30 31 31 31 31 30 30 29 28 27 26 25 25 25 25 25 24 22 20 18 16 16 16 15 14 13 12 11 10 9 8 7 6 5 6 6 7 8 9 9 10 11 10 9 9 10 10 10 10 10
20 20 20 21 22 23 24 24 25 26 26 26 26 26 27 27 28 29 30 30 31 31 31 31 31 30 30 29 28 27 27 26 26 25 25 24 22 19 17 16 15 15 14 13 12 11 10 9 8 7 6 6 7 7 7 8 9 10 10 11 11 11 10 10 10 11 11 10 10
20 19 20 20 21 22 23 24 25 25 26 26 26 27 27 27 28 29 29 30 31 31 31 31 31 31 30 30 29 28 28 27 27 26 25 23 21 19 17 16 15 15 14 13 12 11 10 8 7 7 7 8 8 8 9 9 10 10 11 11 11 11 11 11 11 11 11 11 10
20 20 20 21 22 22 23 24 24 24 25 26 27 27 27 27 28 28 29 29 30 31 31 31 31 31 30 30 30 29 28 27 27 26 24 22 21 19 18 17 16 15 15 13 12 11 10 8 8 8 8 9 10 10 10 11 11 11 11 11 12 12 11 11 11 12 11 11 11
21 21 21 22 22 22 23 23 23 23 24 25 26 26 26 26 27 27 28 29 30 31 31 31 31 30 30 30 30 29 28 27 26 25 24 22 21 19 18 17 16 15 15 13 12 11 10 9 9 9 10 10 11 11 11 11 12 12 12 12 12 12 12 12 12 12 11 11 10
Wind_Direction
264 276 276 267 257 255 253 247 246 243 243 248 249 243 237 235 234 232 231 233 236 239 243 248 252 255 256 257 256 255 255 257 260 264 267 267 266 266 266 266 265 265 265 265 266 268 270 273 276 278 280 282 283 284 285 286 286 286 286 285 285 284 283 283 283 282 282 282 281
265 273 277 276 272 266 244 216 219 229 240 249 250 246 241 240 241 241 240 238 239 241 243 245 248 250 251 251 252 253 256 260 264 266 266 265 264 264 264 264 263 263 264 265 266 269 271 274 277 279 281 283 284 286 287 287 287 286 286 285 284 284 283 283 283 283 283 282 282
272 272 270 268 267 263 251 229 213 211 218 229 237 240 240 239 241 243 244 244 244 243 243 243 246 247 249 251 253 257 261 264 265 264 263 263 263 263 262 262 262 263 264 266 268 271 274 276 279 281 283 285 287 287 288 288 287 286 285 284 284 284 283 283 283 283 283 283 282
281 279 275 273 272 271 269 265 256 249 246 246 247 245 242 239 239 241 242 243 244 244 244 244 247 250 253 258 261 263 264 263 263 262 262 262 262 262 262 262 263 265 267 269 272 274 277 280 282 284 286 288 289 289 288 287 286 285 285 284 284 283 283 283 283 282 282 282 281
291 289 286 285 283 282 280 279 278 277 276 276 271 267 262 256 252 247 245 244 245 245 246 248 252 257 261 264 264 263 262 262 261 261 262 262 262 263 263 264 266 268 270 273 276 278 281 283 285 287 289 290 289 289 288 287 286 285 285 285 284 284 284 283 282 281 280 280 280
288 288 289 290 292 291 289 285 281 278 277 277 277 277 276 273 268 262 257 253 251 250 251 255 260 263 264 263 263 262 262 262 262 262 262 263 264 264 266 267 269 271 274 277 279 281 284 286 288 289 290 290 289 288 287 287 286 286 286 286 285 284 283 281 280 279 278 278 279
286 285 284 285 288 290 291 290 287 283 279 276 275 275 275 273 270 266 263 260 258 257 259 262 264 265 264 264 263 263 263 263 263 263 264 264 265 266 268 270 272 275 277 280 282 284 286 288 289 290 290 289 289 288 288 288 288 288 287 287 285 283 281 279 278 278 277 277 276
287 285 284 283 283 284 286 287 288 287 286 282 278 275 272 270 268 266 264 263 262 263 264 265 265 265 265 265 264 264 264 264 264 265 265 266 267 269 271 273 275 278 280 282 284 286 288 289 289 290 289 289 289 288 288 288 288 288 288 286 284 282 280 279 278 278 277 276 275
284 284 284 283 282 281 281 281 282 283 284 284 282 279 276 273 270 268 266 266 266 266 266 266 266 266 265 265 264 264 264 265 265 266 267 268 269 271 273 275 278 280 282 284 286 287 288 289 289 290 289 289 289 289 288 288 288 288 287 285 283 281 279 278 278 277 277 276 276
279 280 281 281 280 279 278 277 277 277 278 280 280 280 279 279 277 274 271 269 268 267 267 266 266 265 265 265 265 265 266 267 268 268 269 270 272 273 276 278 280 282 284 286 287 288 289 289 289 289 289 289 288 288 288 288 288 286 285 283 280 278 277 276 276 276 275 276 277
274 275 275 275 275 275 274 274 273 273 273 274 275 276 277 278 280 279 278 275 271 269 268 267 267 266 266 266 267 268 268 269 269 269 270 272 273 275 278 280 282 284 286 287 288 288 289 289 289 288 288 287 287 287 287 286 286 284 281 279 277 277 276 275 274 273 273 275 276
271 270 270 269 269 269 270 270 270 270 269 269 269 270 272 274 276 278 279 278 275 272 271 271 270 269 268 268 268 268 269 269 269 270 271 273 275 277 279 281 283 285 286 287 287 287 288 288 287 287 286 286 286 285 285 284 282 280 277 275 275 276 277 277 276 274 274 274 275
270 269 267 266 266 265 266 267 267 268 268 267 266 266 268 270 273 275 275 275 274 272 271 271 270 268 267 266 266 266 267 267 268 270 272 274 276 278 280 282 283 284 285 285 286 286 286 286 286 285 285 284 284 284 283 281 278 275 272 271 271 273 275 276 276 275 274 274 274
271 270 268 267 265 264 264 265 266 267 266 265 264 263 264 268 271 272 272 270 269 268 267 266 265 264 263 263 263 264 265 267 269 271 273 275 277 279 280 281 282 283 283 283 284 284 284 284 284 284 284 285 284 284 282 279 274 269 267 266 267 269 270 272 272 272 271 271 271
272 271 270 269 267 266 265 265 266 266 266 265 263 262 263 264 266 266 265 264 263 262 262 261 260 259 259 261 262 264 266 268 270 272 274 276 278 279 280 280 280 280 281 281 282 283 283 284 284 285 286 286 286 284 281 277 271 265 261 261 263 265 267 268 269 268 268 268 268
272 271 271 270 269 268 267 267 267 267 267 266 266 264 263 261 260 259 259 258 258 257 256 255 255 256 258 259 261 263 265 267 270 272 274 276 277 277 278 278 278 279 279 280 281 282 283 284 286 287 288 288 287 285 281 276 270 264 258 255 255 259 263 266 267 267 267 267 267
271 271 271 271 270 270 270 270 270 270 269 268 267 265 262 259 257 256 255 255 254 253 252 252 253 254 256 258 260 262 265 267 269 271 273 274 275 276 276 277 278 278 279 280 281 283 284 286 288 289 290 290 289 287 283 277 271 265 259 254 252 253 257 261 264 265 265 265 266
271 271 271 271 271 272 272 272 272 271 269 267 265 263 260 257 256 254 253 252 251 250 250 250 252 254 256 258 260 263 265 268 270 271 273 274 275 276 277 278 279 280 280 281 282 284 286 288 289 290 291 292 292 290 287 281 275 270 264 259 254 253 255 258 260 262 263 264 264
274 272 271 271 272 272 273 272 272 270 269 267 264 261 258 256 254 252 250 249 248 247 248 249 252 254 256 259 261 264 267 269 271 272 274 276 277 278 278 279 280 281 281 282 284 285 287 289 290 291 292 293 293 293 290 286 280 274 269 264 260 258 257 257 259 260 261 262 263
278 275 273 272 272 272 273 272 272 271 270 268 265 262 259 256 253 250 248 246 245 246 247 249 252 255 257 260 263 266 268 271 272 274 275 277 278 279 279 280 280 281 282 283 285 287 288 289 290 291 292 293 293 293 291 288 283 278 272 268 264 262 260 259 259 259 259 260 261
283 279 276 274 273 272 272 272 271 271 270 269 266 263 260 256 252 249 246 244 244 246 248 250 253 256 259 262 265 267 270 272 274 275 276 277 278 279 279 280 280 281 283 285 286 288 289 290 291 291 291 291 291 290 289 287 284 280 276 271 268 265 263 261 260 258 258 259 260
288 284 280 276 274 272 271 271 270 270 270 269 267 263 259 255 251 247 245 244 245 247 249 252 255 258 261 264 266 269 271 273 275 276 276 277 277 278 279 279 281 282 284 286 288 289 290 291 291 291 290 290 289 287 286 285 283 280 277 274 270 267 265 262 260 258 257 258 260
291 286 282 278 274 272 270 269 269 269 269 268 266 263 258 254 249 246 245 245 246 249 251 254 257 260 263 266 268 270 272 273 275 276 277 277 278 278 279 280 282 284 286 288 289 290 291 291 291 291 289 288 286 284 283 281 280 279 277 275 272 269 266 264 261 259 258 257 259
291 286 282 278 274 271 269 268 267 267 268 267 266 262 257 252 248 246 245 246 248 250 253 256 259 262 264 267 269 270 272 273 274 276 278 279 279 280 281 282 284 286 288 289 289 290 290 291 291 290 288 286 284 282 280 278 277 277 276 275 273 271 268 265 263 261 259 258 259
290 285 281 276 273 270 267 266 266 266 267 267 265 261 257 252 249 247 247 248 250 252 255 257 260 263 265 268 270 271 273 274 275 277 279 280 281 282 283 285 286 287 288 288 289 289 290 290 290 289 287 286 285 283 280 278 276 275 275 274 273 272 270 268 266 264 262 261 260
288 284 279 275 271 268 266 265 265 265 265 265 264 260 256 253 250 249 249 250 251 253 256 258 261 263 266 269 271 273 275 277 278 279 280 282 282 283 284 286 286 287 287 288 288 289 289 289 289 288 288 288 287 285 282 279 277 275 274 273 272 271 270 269 267 266 265 263 262
286 283 279 274 270 267 265 264 263 263 263 263 262 260 257 254 252 251 251 251 253 254 256 259 261 264 267 270 273 276 279 281 281 282 283 283 283 284 284 285 285 286 287 288 289 289 289 289 289 289 289 288 287 285 282 280 277 275 273 271 270 270 270 269 268 266 265 265 265
285 283 279 274 269 266 264 263 262 261 261 261 261 259 257 255 254 253 253 253 254 256 258 260 262 264 267 271 275 279 282 284 284 285 284 284 283 283 283 284 286 287 288 289 290 290 291 291 291 291 289 288 285 282 279 277 275 273 270 269 268 268 268 268 267 266 265 265 265
283 282 279 274 269 266 263 261 260 259 259 260 260 259 258 257 255 255 254 255 256 257 259 261 263 264 267 271 276 280 284 286 287 286 285 284 284 284 284 285 287 288 290 290 291 292 293 293 293 292 289 286 282 279 277 275 273 271 270 269 268 268 268 267 265 265 264 264 264
281 281 278 275 270 266 263 261 260 259 259 259 259 259 258 258 257 257 256 257 258 260 261 261 263 265 268 271 276 280 284 287 288 288 287 286 286 286 287 288 289 290 291 291 292 293 293 294 293 292 289 284 279 276 273 272 272 272 272 273 273 272 270 268 266 264 262 262 261
277 278 278 275 271 267 263 261 260 259 258 258 258 258 258 259 259 258 259 259 260 261 261 262 264 266 268 272 276 280 284 287 289 290 289 287 286 287 288 289 290 290 290 290 291 292 293 294 294 293 289 282 275 270 267 267 269 274 278 280 280 277 273 268 265 262 261 260 258
273 275 276 275 272 269 265 262 260 258 258 258 258 258 259 259 259 260 260 260 261 261 262 263 265 267 269 273 276 280 284 288 290 291 290 288 287 287 287 288 289 289 288 289 290 292 294 296 297 296 290 281 271 264 261 262 268 276 282 285 283 278 271 262 257 256 258 258 257
271 272 273 274 273 270 267 263 260 259 258 258 258 258 259 259 259 260 260 260 261 262 263 264 266 268 270 273 276 280 284 288 290 291 290 288 286 286 287 287 287 286 286 286 288 292 295 299 301 299 292 280 268 260 258 261 267 273 276 277 274 266 252 235 229 237 248 253 255
269 271 272 273 273 271 268 265 261 259 258 258 258 258 258 258 259 259 259 260 261 262 264 265 266 268 270 273 276 280 284 288 290 290 288 286 285 285 285 285 284 283 283 284 288 293 298 302 304 302 294 280 268 260 256 257 259 260 260 259 254 244 229 217 220 232 242 248 251
268 270 271 272 272 271 269 266 263 261 259 259 258 258 258 258 258 258 259 260 261 263 264 265 266 268 270 272 276 279 283 286 287 287 286 284 284 283 283 281 280 280 281 283 288 294 300 305 306 304 296 283 270 259 251 245 241 241 242 242 238 229 218 213 221 232 240 245 246
269 270 271 271 271 270 269 267 265 263 262 260 259 259 258 258 258 258 259 260 261 263 264 265 266 268 270 272 275 278 281 283 284 283 283 282 281 280 279 278 277 278 280 283 288 295 301 305 306 304 297 284 267 252 240 231 229 230 233 234 231 224 216 215 223 231 237 240 241
270 270 271 271 271 270 269 268 266 265 264 263 262 261 260 260 259 259 260 260 261 262 263 265 266 268 270 272 275 277 279 280 280 280 279 279 278 277 275 275 275 276 278 281 286 292 298 301 301 297 289 276 259 244 233 227 228 230 233 233 230 226 221 222 226 231 234 235 234
272 271 271 271 271 270 269 268 267 267 267 266 265 264 263 262 261 260 260 261 261 262 263 265 266 268 270 271 273 274 275 276 277 277 276 276 275 274 272 271 271 272 273 276 280 286 291 293 290 284 275 265 253 242 235 232 233 234 235 235 232 229 227 227 229 231 232 231 229
274 273 272 272 271 271 270 269 269 269 269 268 267 266 264 263 262 261 261 261 261 262 263 264 265 267 268 269 270 271 272 273 274 274 273 273 272 271 269 267 265 265 266 269 273 278 281 281 277 270 264 258 251 244 238 236 237 237 236 235 234 232 230 230 231 232 231 229 226
274 273 272 272 272 272 272 272 271 271 270 268 267 266 265 264 263 263 262 262 262 261 261 262 263 264 265 266 267 268 269 270 271 271 271 270 269 268 266 263 260 258 259 261 265 269 270 268 264 259 256 253 249 244 240 238 239 238 237 236 235 234 233 232 232 232 230 227 224
273 273 273 273 273 273 273 273 272 271 270 268 267 266 265 264 263 262 261 260 260 260 259 260 260 261 262 263 264 265 266 267 267 268 267 266 265 265 263 261 257 253 252 253 256 260 261 259 255 252 250 249 248 245 243 241 241 240 238 237 236 235 234 233 232 232 229 225 221